Snow/Ice From: 16-12-2017 16:00 Until: 17-12-2017 16:00 warning for: Snow/Ice Level: Yellow info button

Although rather usual in this region, locally or potentially dangerous phenomena are expected. (such as local winds, summer thunderstorms, rising streams or high waves) Be aware and pay attention to the latest weather updates, especially if you carry out activities exposed to weather or close to a stream or shoreline. 


Meteo18 Weather Cam more information Meteo18 Weather Cam


Thunder radar more information blitzortung!


warning for Snow/Ice more information rain snow radar


Visit our other weather sites:

Template documentation
and downloads

And another site



Weather Underground History page Text

Daily Summary for July 28, 2017 Units:  English    Metric   Both
« Previous Day
Next Day »
Daily Weekly Monthly Yearly Custom
  High: Low: Average:
Temperature: 73.6 °F 57.2 °F 64.9 °F
Dew Point: 61.5 °F 53.6 °F 55.6 °F
Humidity: 90 % 52 % 73 %
Wind Speed: 12 mph 0 mph 3.4 mph
Wind Gust: 15 mph - -
Wind:- - WSW
Pressure: 30.1 in 30 in -
Precipitation: 0 in    
Historical Graphs
 
 
Tabular Data for July 28, 2017
Time Temperature Dew Point Pressure Wind Wind Speed Wind Gust Humidity Rainfall Rate (Hourly)
00:02 64.2 °F 61.2 °F 30 in Calm     90 % 0 in
00:12 64.6 °F 61.5 °F 30 in Calm   1 mph 90 % 0 in
00:17 64.6 °F 61.3 °F 30 in Calm   1 mph 89 % 0 in
00:22 64.4 °F 61.2 °F 30 in SW 1 mph 1 mph 89 % 0 in
00:32 64 °F 59.7 °F 30 in SW 2 mph 2 mph 86 % 0 in
00:42 64.2 °F 59 °F 30 in Calm   3 mph 83 % 0 in
00:52 64 °F 58.8 °F 30 in WSW 1 mph 3 mph 83 % 0 in
00:57 64 °F 58.8 °F 30 in WSW 1 mph 3 mph 83 % 0 in
01:02 63.9 °F 58.6 °F 30 in WSW 2 mph 3 mph 83 % 0 in
01:07 63.9 °F 58.3 °F 30 in WSW 1 mph 2 mph 82 % 0 in
01:12 63.7 °F 58.1 °F 30 in West 3 mph 3 mph 82 % 0 in
01:17 63.5 °F 57.6 °F 30 in West 1 mph 4 mph 81 % 0 in
01:22 63.3 °F 57 °F 30 in West 2 mph 5 mph 80 % 0 in
01:32 63 °F 57 °F 30 in WSW 1 mph 5 mph 81 % 0 in
01:37 62.8 °F 56.8 °F 30 in WSW 3 mph 4 mph 81 % 0 in
01:42 62.8 °F 56.8 °F 30 in WSW 3 mph 4 mph 81 % 0 in
01:47 62.6 °F 56.7 °F 30 in WSW 2 mph 4 mph 81 % 0 in
01:52 62.4 °F 56.5 °F 30 in Calm   4 mph 81 % 0 in
01:57 62.4 °F 56.8 °F 30 in WSW 1 mph 4 mph 82 % 0 in
02:02 62.2 °F 56.7 °F 30 in SW 1 mph 3 mph 82 % 0 in
02:07 62.2 °F 56.7 °F 30 in WSW 1 mph 3 mph 82 % 0 in
02:12 62.1 °F 56.5 °F 30 in Calm   3 mph 82 % 0 in
02:17 61.9 °F 56.7 °F 30 in West 1 mph 3 mph 83 % 0 in
02:22 61.5 °F 56.3 °F 30 in WSW 1 mph 3 mph 83 % 0 in
02:27 61.5 °F 56.3 °F 30 in WSW 1 mph 3 mph 83 % 0 in
02:32 61.3 °F 56.1 °F 30 in Calm   3 mph 83 % 0 in
02:42 61 °F 55.8 °F 30 in Calm   3 mph 83 % 0 in
02:47 61 °F 55.8 °F 30 in SW 2 mph 2 mph 83 % 0 in
02:52 60.6 °F 55.4 °F 30 in West 2 mph 5 mph 83 % 0 in
03:02 60.4 °F 55.2 °F 30 in West 2 mph 5 mph 83 % 0 in
03:12 60.3 °F 55 °F 30 in WSW 2 mph 4 mph 83 % 0 in
03:17 60.1 °F 54.9 °F 30 in West 1 mph 4 mph 83 % 0 in
03:22 60.1 °F 54.9 °F 30 in West 1 mph 4 mph 83 % 0 in
03:27 59.7 °F 54.9 °F 30 in WSW 1 mph 4 mph 84 % 0 in
03:32 59.7 °F 54.9 °F 30 in West 1 mph 4 mph 84 % 0 in
03:37 59.5 °F 54.7 °F 30 in West 2 mph 4 mph 84 % 0 in
03:42 59.4 °F 54.5 °F 30 in West 2 mph 4 mph 84 % 0 in
03:52 59 °F 54.5 °F 30 in West 3 mph 5 mph 85 % 0 in
03:57 58.8 °F 54.3 °F 30 in WSW 1 mph 5 mph 85 % 0 in
04:02 59 °F 54.5 °F 30 in West 4 mph 5 mph 85 % 0 in
04:12 59 °F 54.5 °F 30 in West 1 mph 6 mph 85 % 0 in
04:17 58.8 °F 54.3 °F 30 in WSW 1 mph 6 mph 85 % 0 in
04:22 58.8 °F 54.3 °F 30 in WNW 3 mph 6 mph 85 % 0 in
04:27 58.8 °F 54.3 °F 30 in West 2 mph 4 mph 85 % 0 in
04:32 58.8 °F 54.7 °F 30 in West 2 mph 4 mph 86 % 0 in
04:37 58.8 °F 54.3 °F 30 in WSW 2 mph 4 mph 85 % 0 in
04:47 58.8 °F 54.3 °F 30 in West 2 mph 5 mph 85 % 0 in
04:52 58.8 °F 54.7 °F 30 in WSW 3 mph 5 mph 86 % 0 in
04:57 58.8 °F 54.7 °F 30 in West 2 mph 5 mph 86 % 0 in
05:02 59 °F 54.5 °F 30 in West 7 mph 7 mph 85 % 0 in
05:12 59.2 °F 54.7 °F 30 in WSW 3 mph 7 mph 85 % 0 in
05:17 59.2 °F 54.7 °F 30 in NW 2 mph 7 mph 85 % 0 in
05:27 59 °F 54.5 °F 30 in WSW 3 mph 8 mph 85 % 0 in
05:32 59 °F 54.5 °F 30 in WSW 2 mph 8 mph 85 % 0 in
05:42 58.8 °F 54.3 °F 30 in West 1 mph 8 mph 85 % 0 in
05:47 58.6 °F 54.5 °F 30 in Calm   8 mph 86 % 0 in
05:57 58.3 °F 54.5 °F 30 in WSW 4 mph 6 mph 87 % 0 in
06:02 58.3 °F 54.5 °F 30 in West 1 mph 6 mph 87 % 0 in
06:12 58.1 °F 54.3 °F 30 in WSW 1 mph 6 mph 87 % 0 in
06:17 58.1 °F 54 °F 30 in West 3 mph 6 mph 86 % 0 in
06:22 57.9 °F 54.1 °F 30 in West 3 mph 9 mph 87 % 0 in
06:32 57.7 °F 54 °F 30 in West 2 mph 9 mph 87 % 0 in
06:42 57.6 °F 53.8 °F 30 in SW 3 mph 7 mph 87 % 0 in
06:47 57.6 °F 53.8 °F 30 in SSW 3 mph 7 mph 87 % 0 in
06:52 57.6 °F 53.8 °F 30 in WSW 3 mph 6 mph 87 % 0 in
07:02 57.4 °F 53.8 °F 30 in SW 4 mph 6 mph 88 % 0 in
07:12 57.2 °F 53.6 °F 30 in SW 4 mph 7 mph 88 % 0 in
07:17 57.2 °F 54 °F 30 in SW 4 mph 7 mph 89 % 0 in
07:22 57.2 °F 54 °F 30 in West 4 mph 6 mph 89 % 0 in
07:32 57.2 °F 54 °F 30 in Calm   7 mph 89 % 0 in
07:37 57.4 °F 54.1 °F 30 in SW 4 mph 7 mph 89 % 0 in
07:42 57.4 °F 54.1 °F 30 in SSW 2 mph 6 mph 89 % 0 in
07:47 57.6 °F 54.3 °F 30.1 in WSW 1 mph 6 mph 89 % 0 in
07:52 57.6 °F 54 °F 30.1 in WSW 3 mph 6 mph 88 % 0 in
07:57 57.6 °F 54 °F 30.1 in South 2 mph 6 mph 88 % 0 in
08:02 57.7 °F 54.5 °F 30.1 in SW 4 mph 6 mph 89 % 0 in
08:12 57.7 °F 54.5 °F 30.1 in West 3 mph 5 mph 89 % 0 in
08:17 57.7 °F 54.1 °F 30.1 in WSW 4 mph 5 mph 88 % 0 in
08:22 57.9 °F 54.3 °F 30.1 in West 4 mph 7 mph 88 % 0 in
08:32 58.5 °F 54.9 °F 30.1 in WNW 4 mph 7 mph 88 % 0 in
08:37 58.6 °F 55 °F 30.1 in WNW 3 mph 7 mph 88 % 0 in
08:42 58.6 °F 54.9 °F 30.1 in West 4 mph 9 mph 87 % 0 in
08:52 58.8 °F 55.2 °F 30.1 in West 3 mph 9 mph 88 % 0 in
08:57 58.8 °F 55.2 °F 30.1 in WSW 2 mph 9 mph 88 % 0 in
09:02 58.8 °F 55.2 °F 30.1 in West 2 mph 9 mph 88 % 0 in
09:12 59 °F 55.2 °F 30.1 in WSW 2 mph 9 mph 87 % 0 in
09:17 59.2 °F 55.6 °F 30.1 in SW 6 mph 9 mph 88 % 0 in
09:22 59.2 °F 55.6 °F 30.1 in WSW 6 mph 8 mph 88 % 0 in
09:27 59.2 °F 55.4 °F 30.1 in West 3 mph 8 mph 87 % 0 in
09:37 59.7 °F 56.1 °F 30.1 in SW 3 mph 7 mph 88 % 0 in
09:42 59.9 °F 55.9 °F 30.1 in WSW 5 mph 7 mph 87 % 0 in
09:52 59.7 °F 55.8 °F 30.1 in WSW 6 mph 10 mph 87 % 0 in
10:02 60.1 °F 56.1 °F 30.1 in SW 1 mph 11 mph 87 % 0 in
10:12 60.4 °F 56.3 °F 30.1 in West 4 mph 12 mph 86 % 0 in
10:17 60.6 °F 56.1 °F 30.1 in SW 3 mph 12 mph 85 % 0 in
10:22 61.2 °F 56.7 °F 30.1 in WSW 5 mph 11 mph 85 % 0 in
10:32 62.1 °F 56.8 °F 30.1 in West 2 mph 13 mph 83 % 0 in
10:42 62.2 °F 56.3 °F 30.1 in West 4 mph 13 mph 81 % 0 in
10:52 62.4 °F 56.8 °F 30.1 in SSW 4 mph 10 mph 82 % 0 in
10:57 62.8 °F 56.8 °F 30.1 in WSW 5 mph 10 mph 81 % 0 in
11:02 63 °F 57.4 °F 30.1 in SSW 5 mph 10 mph 82 % 0 in
11:12 63.3 °F 56.7 °F 30.1 in WSW 4 mph 10 mph 79 % 0 in
11:17 63.5 °F 56.5 °F 30.1 in SW 7 mph 10 mph 78 % 0 in
11:22 63.9 °F 56.5 °F 30.1 in West 5 mph 11 mph 77 % 0 in
11:27 64.4 °F 57 °F 30.1 in WSW 4 mph 11 mph 77 % 0 in
11:32 64.8 °F 56.7 °F 30.1 in SSW 4 mph 11 mph 75 % 0 in
11:42 64.9 °F 56.5 °F 30.1 in SSW 4 mph 9 mph 74 % 0 in
11:47 65.7 °F 58.3 °F 30.1 in SW 6 mph 9 mph 77 % 0 in
11:52 66 °F 57.6 °F 30.1 in WSW 3 mph 13 mph 74 % 0 in
12:02 65.5 °F 56.7 °F 30.1 in West 3 mph 13 mph 73 % 0 in
12:12 65.5 °F 56.7 °F 30.1 in WSW 6 mph 11 mph 73 % 0 in
12:17 65.5 °F 56.3 °F 30.1 in SW 5 mph 11 mph 72 % 0 in
12:22 65.5 °F 55.8 °F 30.1 in WSW 5 mph 13 mph 71 % 0 in
12:32 65.8 °F 56.5 °F 30.1 in SSW 4 mph 13 mph 72 % 0 in
12:37 66 °F 55.6 °F 30.1 in SSW 7 mph 10 mph 69 % 0 in
12:42 66.4 °F 55.6 °F 30.1 in SW 6 mph 10 mph 68 % 0 in
12:47 66.6 °F 54.5 °F 30.1 in WSW 5 mph 10 mph 65 % 0 in
12:52 67.1 °F 54.9 °F 30.1 in SW 7 mph 13 mph 65 % 0 in
12:57 67.3 °F 55 °F 30.1 in SW 2 mph 13 mph 65 % 0 in
13:02 67.8 °F 55.2 °F 30.1 in WSW 6 mph 13 mph 64 % 0 in
13:12 68.4 °F 55.2 °F 30.1 in SSW 6 mph 11 mph 63 % 0 in
13:17 68.7 °F 56.8 °F 30.1 in SW 8 mph 11 mph 66 % 0 in
13:22 68.4 °F 54 °F 30.1 in West 3 mph 12 mph 60 % 0 in
13:32 68 °F 54 °F 30.1 in WSW 7 mph 12 mph 61 % 0 in
13:37 68.5 °F 54.5 °F 30.1 in WSW 5 mph 12 mph 61 % 0 in
13:42 68.7 °F 55.2 °F 30.1 in West 6 mph 12 mph 62 % 0 in
13:52 68.4 °F 54 °F 30.1 in WNW 8 mph 12 mph 60 % 0 in
14:02 68.9 °F 54 °F 30.1 in WNW 5 mph 13 mph 59 % 0 in
14:12 70 °F 55.9 °F 30.1 in SW 5 mph 14 mph 61 % 0 in
14:17 70.2 °F 55.6 °F 30.1 in SW 12 mph 14 mph 60 % 0 in
14:27 70.2 °F 54.7 °F 30.1 in SSW 3 mph 14 mph 58 % 0 in
14:32 70.3 °F 54.9 °F 30.1 in SSW 9 mph 14 mph 58 % 0 in
14:37 70.2 °F 54.1 °F 30.1 in South 6 mph 14 mph 57 % 0 in
14:42 70 °F 54 °F 30.1 in SSW 4 mph 13 mph 57 % 0 in
14:52 70.3 °F 54.3 °F 30.1 in West 6 mph 13 mph 57 % 0 in
15:02 70.5 °F 54.1 °F 30.1 in WSW 5 mph 15 mph 56 % 0 in
15:12 70.2 °F 54.1 °F 30.1 in SW 7 mph 15 mph 57 % 0 in
15:17 70.7 °F 55.2 °F 30.1 in SW 5 mph 15 mph 58 % 0 in
15:27 71.1 °F 54.5 °F 30.1 in West 6 mph 14 mph 56 % 0 in
15:32 72 °F 55.4 °F 30.1 in West 6 mph 13 mph 56 % 0 in
15:42 72.1 °F 53.6 °F 30.1 in West 8 mph 13 mph 52 % 0 in
15:47 72 °F 54 °F 30.1 in WNW 8 mph 13 mph 53 % 0 in
15:52 71.8 °F 55.2 °F 30.1 in SW 7 mph 13 mph 56 % 0 in
15:57 72.1 °F 54.5 °F 30.1 in SW 8 mph 13 mph 54 % 0 in
16:02 72 °F 54 °F 30.1 in SSW 7 mph 13 mph 53 % 0 in
16:12 71.8 °F 54.3 °F 30.1 in WNW 7 mph 14 mph 54 % 0 in
16:22 72.7 °F 54.5 °F 30.1 in SW 6 mph 12 mph 53 % 0 in
16:32 72.1 °F 54.5 °F 30.1 in SW 6 mph 15 mph 54 % 0 in
16:42 72.7 °F 54.5 °F 30.1 in SW 8 mph 15 mph 53 % 0 in
16:47 72.7 °F 55 °F 30.1 in WNW 3 mph 12 mph 54 % 0 in
16:52 72.7 °F 54.5 °F 30.1 in WSW 4 mph 12 mph 53 % 0 in
17:02 72.3 °F 53.8 °F 30.1 in SW 5 mph 13 mph 52 % 0 in
17:12 72.3 °F 54.7 °F 30.1 in NW 5 mph 13 mph 54 % 0 in
17:17 72.3 °F 53.8 °F 30.1 in West 2 mph 10 mph 52 % 0 in
17:22 72.3 °F 54.1 °F 30.1 in NW 2 mph 10 mph 53 % 0 in
17:32 73.2 °F 55.6 °F 30 in West 2 mph 10 mph 54 % 0 in
17:42 73.6 °F 54.9 °F 30 in West 3 mph 13 mph 52 % 0 in
17:52 72.9 °F 54.7 °F 30 in WSW 1 mph 9 mph 53 % 0 in
17:57 72.9 °F 55.8 °F 30 in SSW 2 mph 9 mph 55 % 0 in
18:02 73 °F 54.9 °F 30 in SW 8 mph 9 mph 53 % 0 in
18:07 73 °F 54.9 °F 30 in West 3 mph 10 mph 53 % 0 in
18:12 72.9 °F 55.2 °F 30 in WSW 4 mph 10 mph 54 % 0 in
18:17 73 °F 55.4 °F 30 in WSW 2 mph 15 mph 54 % 0 in
18:22 73.2 °F 56.1 °F 30 in SW 6 mph 15 mph 55 % 0 in
18:32 73.6 °F 55.4 °F 30 in WSW 6 mph 9 mph 53 % 0 in
18:42 72.7 °F 55 °F 30 in West 4 mph 11 mph 54 % 0 in
18:47 72.3 °F 55.2 °F 30 in WSW 3 mph 11 mph 55 % 0 in
18:52 72.3 °F 54.7 °F 30 in West 4 mph 11 mph 54 % 0 in
18:57 72.3 °F 55.2 °F 30.1 in West 3 mph 10 mph 55 % 0 in
19:12 72.3 °F 55.8 °F 30 in WSW 4 mph 10 mph 56 % 0 in
19:17 72.3 °F 55.8 °F 30 in West 5 mph 10 mph 56 % 0 in
19:22 72.5 °F 55.4 °F 30.1 in WSW 4 mph 10 mph 55 % 0 in
19:32 72.5 °F 55.4 °F 30 in SW 5 mph 10 mph 55 % 0 in
19:42 72.1 °F 55.6 °F 30 in West 7 mph 11 mph 56 % 0 in
19:52 72 °F 55.9 °F 30 in SW 4 mph 11 mph 57 % 0 in
19:57 71.8 °F 55.8 °F 30 in SW 6 mph 11 mph 57 % 0 in
20:02 71.8 °F 55.8 °F 30 in SW 6 mph 10 mph 57 % 0 in
20:12 71.8 °F 56.1 °F 30 in SW 6 mph 10 mph 58 % 0 in
20:17 71.4 °F 55.9 °F 30 in SSW 5 mph 7 mph 58 % 0 in
20:22 71.4 °F 55.9 °F 30 in SW 4 mph 9 mph 58 % 0 in
20:32 71.2 °F 56.1 °F 30 in WSW 2 mph 9 mph 59 % 0 in
20:42 71.1 °F 56.5 °F 30 in SSW 2 mph 9 mph 60 % 0 in
20:52 70.9 °F 56.3 °F 30 in SW 3 mph 7 mph 60 % 0 in
20:57 70.9 °F 56.3 °F 30 in WSW 1 mph 7 mph 60 % 0 in
21:02 70.7 °F 56.7 °F 30 in SSW 3 mph 7 mph 61 % 0 in
21:12 70.3 °F 56.7 °F 30 in SW 3 mph 6 mph 62 % 0 in
21:17 70.2 °F 56.1 °F 30 in WSW 4 mph 5 mph 61 % 0 in
21:22 70.2 °F 56.5 °F 30 in WSW 3 mph 6 mph 62 % 0 in
21:27 70 °F 56.3 °F 30.1 in SW 2 mph 6 mph 62 % 0 in
21:32 69.6 °F 56.5 °F 30.1 in SW 1 mph 6 mph 63 % 0 in
21:42 69.4 °F 56.3 °F 30.1 in WSW 2 mph 4 mph 63 % 0 in
21:52 69.3 °F 56.5 °F 30.1 in WSW 4 mph 5 mph 64 % 0 in
21:57 69.1 °F 56.5 °F 30.1 in SW 3 mph 5 mph 64 % 0 in
22:02 68.9 °F 56.7 °F 30.1 in SW 3 mph 5 mph 65 % 0 in
22:12 68.5 °F 56.3 °F 30.1 in SSW 2 mph 5 mph 65 % 0 in
22:17 68.4 °F 56.5 °F 30.1 in SW 3 mph 4 mph 66 % 0 in
22:22 68.4 °F 56.5 °F 30.1 in SSW 2 mph 4 mph 66 % 0 in
22:32 68 °F 56.7 °F 30.1 in SW 2 mph 4 mph 67 % 0 in
22:42 67.6 °F 56.3 °F 30.1 in WSW 3 mph 4 mph 67 % 0 in
22:47 67.6 °F 56.3 °F 30.1 in SSW 2 mph 4 mph 67 % 0 in
22:52 67.6 °F 56.7 °F 30.1 in SW 2 mph 4 mph 68 % 0 in
22:57 67.3 °F 56.3 °F 30.1 in SSW 1 mph 4 mph 68 % 0 in
23:02 66.7 °F 57 °F 30.1 in Calm   4 mph 71 % 0 in
23:12 65.5 °F 57 °F 30.1 in Calm   4 mph 74 % 0 in
23:22 64.6 °F 56.8 °F 30.1 in Calm   1 mph 76 % 0 in
23:32 64 °F 56.7 °F 30.1 in Calm     77 % 0 in
23:42 63.1 °F 56.5 °F 30.1 in Calm     79 % 0 in
23:52 62.4 °F 56.1 °F 30.1 in Calm     80 % 0 in
23:57 62.2 °F 55.9 °F 30.1 in Calm   1 mph 80 % 0 in
Meteo18
Compliments of Weather Underground - 4 mb

Script developed by  Jim McMurry - jmcmurry@mwt.net Adapted for the template by  Wim van der Kuil - Leuven-Template.eu

You find our weather info also at:

European Weather Network

Weather Underground

Equipment we use:

Weather-station
Davis Vue

Weather-program
Meteohub

Weather-server
Raspberry PI 2 B+

Provider
1 and 1

Davis Vue

Meteohub

Raspberry PI 2 B+

1 and 1